Showing default

FLOCK 4BE 5, 60559

Orbit data source: Space-Track

FLOCK 4BE 5, 60559 is a payload satellite owned by Planet (US) in SSO that was launched on Fri, 16 Aug 2024 UTC via an FALCON 9 launch vehicle from the Air Force Western Test Range (AFWTR). Payload-class satellites include a variety of spacecraft equipped with specific instruments for various scientific and technological missions. These include communications satellites like Starlink; space stations such as the ISS; scientific satellites like the Hubble; Earth observation satellites from companies like Planet Labs, Umbra, and HawkEye 360; GPS; miniature CubeSats for education and research; and military/defense satellites.

Loading next visibility...
Identifier
60559, 2024-149CV
Orbit
SSO
Country
Flag of USUS
Related business
Manufacturer
Planet
Mission
Operational Commercial Imaging
Bus & Motor
CUBESAT 3U, Unknown motor
Mass
5.7 kg wet, 5.7 kg dry
Launch date (UTC)
2024-08-16 (2 years ago)
Launch vehicle
FALCON 9
Launch site
Air Force Western Test Range (AFWTR)
Object type
Payload
Rocket body
Debris
Shape & HBR
Box + 2 Pan, 1.0 m
Radar Cross Section
0.072 m², Medium (>0.1 m² and < 1m²)

Expand to show TLE details & history
Last TLE update: 12 hours ago

TLE from 12 hours ago
0 FLOCK 4BE 5
1 60559U 24149CV  26144.76434407  .00013978  00000-0  35789-3 0  9990
2 60559  97.3839 228.5519 0003523  48.3099 311.8447 15.39509227 98675
Epoch: 2026-05-24T18:20Z
TLE epoch observation values (Epoch: 2026-05-24T18:20:39.327Z)
Latitude
-0.00011°
Longitude
71.02624°
Altitude
449.073 km
Speed
7.644 km/s
True Right ascension
15h 14m 12s
True Declination
0° 00' 00"
Sunlit
Object was in full shadow at epoch
Visualization orbit readout
Latitude
Unknown
Longitude
Unknown
Altitude
Unknown
Speed
Unknown
Apparent Right ascension
Unknown
Apparent Declination
Unknown
Sunlit
N/A
Visualization observer readout
Local Sidereal Time
15:47:24
Azimuth
Unknown
Elevation
Unknown
Doppler factor
Unknown
Orbital elements
Apogee altitude
446.902 km
Perigee altitude
442.095 km
Semi-major axis
6,822.635 km
Eccentricity
0.00035
Inclination
97.3839°
RAAN
228.5519°
Arg. of periapsis
48.3099°
True anomaly
311.81462°
Mean anomaly
311.8447°
Eccentric anomaly
311.82966°
Mean motion
3.85137 °/min
Orbital period
93.47 mins
BSTAR
0.00035789
Loading maneuver chart data...
Computing Atmospheric mass density...
Loading historical data...
Loading historical data...
Loading historical data...
Loading historical data...
Loading historical data...
Loading historical data...
Loading historical data...

Documentation

Showing up to 5 results
|